Location: Waco, TX
(31.5480°N, 97.1670°W)
Time: 15:36:37
(UTC-05:00)

ISS - Pass Details

Date: 17 August 2019
Orbit: 410 x 421 km, 51.6° (Epoch: 22 August)

Event Time Altitude Azimuth Distance (km) Brightness Sun altitude
Rises 10:23:27 0° 256° (WSW) 2,344 -0.4 43.1°
Reaches altitude 10° 10:25:55 10° 274° (W) 1,487 -1.3 43.6°
Maximum altitude 10:28:26 20° 324° (NW) 1,039 -1.9 44.1°
Drops below altitude 10° 10:30:59 10° 13° (NNE) 1,496 -0.8 44.6°
Sets 10:33:29 0° 31° (NNE) 2,364 0.2 45.2°
